Location: Unnamed
(23.5608°S, 46.6833°W)
Time: 21:43:51
(UTC-03:00)

STARLINK-5199 - Pass Details

Date: 05 December 2022
Orbit: 539 x 540 km, 53.2° (Epoch: 29 January)

Event Time Altitude Azimuth Distance (km) Brightness Sun altitude
Exits shadow 04:35:06 11° 304° (NW) 1,770 ? -8.4°
Maximum altitude 04:38:59 48° 229° (SW) 715 ? -7.6°
Drops below altitude 10° 04:42:59 10° 154° (SSE) 1,817 ? -6.8°
Sets 04:45:17 0° 148° (SSE) 2,714 ? -6.3°
